Regional Weather Roundup
Issued by NWS Sterling, VA

Home | Current Version | Previous Version | Graphics & Text | Print | Product List | Glossary On
Versions: 1 2 3 4 5 6 7 8 9 10 11 12 13 14 15 16 17 18 19 20 21 22 23 24 25 26 27 28 29 30 31 32 33 34 35 36 37 38 39 40 41 42 43 44 45 46 47 48 49 50
000
ASUS41 KLWX 292310
RWRLWX

REGIONAL WEATHER ROUNDUP
NATIONAL WEATHER SERVICE BALTIMORE MD/WASHINGTON DC
700 PM EDT FRI MAY 29 2015

Note: "FAIR" indicates few or no clouds below 12,000 feet
with no significant weather and/or obstructions to visibility.
 TC=TEMPERATURE CELSIUS

 * =Non NWS site. Station does not report precipitation (e.g. rain,
    snow, etc.), thunder, or fog.

DCZ001-MDZ009-015-VAZ040>042-051-053>054-300000-
WASHINGTON METRO

CITY           SKY/WX    TMP DP  RH WIND       PRES   REMARKS
WASHINGTON NAT PTSUNNY   84  71  65 SE13      30.18S
DULLES         PTSUNNY   80  67  64 SE6       30.18S
ANDREWS AFB    MOSUNNY   78  69  72 SE12      30.18S
QUANTICO       CLOUDY    73  64  73 SW10G22   30.19R THUNDER
COLLEGE PARK*  MOSUNNY   81  68  65 SE6       30.18S
LEESBURG*      PTSUNNY   84  70  61 S13       30.18S
MANASSAS*      SUNNY     81  72  74 SE6       30.18S
GAITHERSBURG*  MOSUNNY   81  66  61 SE9       30.22S

$$

MDZ006>007-011-014-300000-
BALTIMORE METRO

CITY           SKY/WX    TMP DP  RH WIND       PRES   REMARKS
BWI AIRPORT    PTSUNNY   81  66  60 SE8       30.18S
MD SCIENCE CTR   N/A     80  67  64 MISG      30.19F
MARTIN STATE   MOSUNNY   81  72  74 SE8       30.20S
ANNAPOLIS      SUNNY     75  69  81 SE9       30.19F
FORT MEADE*    MOSUNNY   79  66  65 SE9       30.21R

$$

MDZ012-015-019>023-300000-
MARYLAND EASTERN SHORE

CITY           SKY/WX    TMP DP  RH WIND       PRES   REMARKS
OCEAN CITY     SUNNY     71  63  75 S5        30.23F
SALISBURY      MOSUNNY   72  62  71 S5        30.22S
BAY BRIDGE AP*   N/A    N/A N/A N/A SE10      30.20F
CAMBRIDGE*     MOSUNNY   81  66  61 SE8       30.20S
EASTON*        SUNNY     77  75  94 VRB8      30.23F

$$

MDZ017>025-300000-
SOUTHERN MARYLAND

CITY           SKY/WX    TMP DP  RH WIND       PRES   REMARKS
PATUXENT RIVER MOSUNNY   78  63  59 SE9       30.19F
ST INIGOES       N/A     79  63  57 SE9       30.18F
LEONARDTOWN*   SUNNY     79  63  57 S6        30.21S

$$

MDZ003>005-300000-
NORTH CENTRAL MARYLAND

CITY           SKY/WX    TMP DP  RH WIND       PRES   REMARKS
FREDERICK*     NOT AVBL
HAGERSTOWN APT MOSUNNY   84  65  52 S8        30.17S
WESTMINSTER*   MOSUNNY   84  68  58 S9        30.20S

$$

MDZ501>502-300000-
WESTERN MARYLAND

CITY           SKY/WX    TMP DP  RH WIND       PRES   REMARKS
OAKLAND*       CLOUDY    68 N/A N/A SE7       30.25F
CUMBERLAND*    CLOUDY    72  68  88 CALM      30.21F

$$

VAZ025>031-300000-
SHENANDOAH VALLEY

CITY           SKY/WX    TMP DP  RH WIND       PRES   REMARKS
WINCHESTER*    PTSUNNY   79  64  61 S6        30.19R
FRONT ROYAL*   FAIR      73  68  83 CALM      30.17S
LURAY*         FAIR      77  70  78 CALM      30.18F
NEW MARKET*    FAIR      74  70  86 N3        30.17S
STAUNTON*      PTSUNNY   78  68  73 SE3       30.21S
WAYNESBORO*    FAIR      72  67  83 E6        30.21F

$$

WVZ021-048>050-054>055-300000-
EASTERN WEST VIRGINIA PANHANDLE

CITY           SKY/WX    TMP DP  RH WIND       PRES   REMARKS
MARTINSBURG    MOSUNNY   80  66  62 S3        30.18S
PETERSBURG*    PTSUNNY   75  64  67 SE3       30.18S

$$

VAZ036>039-050-300000-
CENTRAL FOOTHILLS

CITY           SKY/WX    TMP DP  RH WIND       PRES   REMARKS
CHARLOTTESVILL PTSUNNY   80  65  59 SE8       30.18S
CULPEPER*      PTSUNNY   76  67  75 CALM      30.19R
ORANGE*        PTSUNNY   81  68  65 CALM      30.20S
GORDONSVILLE*  FAIR      77  68  74 CALM      30.18S
WARRENTON*     FAIR      78  70  77 SE6       30.18S

$$

VAZ055>057-300000-
NORTH AND CENTRAL PIEDMONT

CITY           SKY/WX    TMP DP  RH WIND       PRES   REMARKS
FREDERICKSBRG* DRIZZLE   72  72 100 NW3       30.18F
STAFFORD*      TSTM      69  67  94 E3        30.23F

$$

NCZ024-NYZ072-PAZ021-071-VAZ022-071-300000-
OTHER REGIONAL OBSERVATIONS

CITY           SKY/WX    TMP DP  RH WIND       PRES   REMARKS
NEW YORK CITY  PTSUNNY   72  56  57 VRB5      30.25S
PHILADELPHIA   PTSUNNY   82  64  54 S8        30.19S
PITTSBURGH     PTSUNNY   79  64  60 S8        30.11F
ROANOKE        PTSUNNY   73  67  81 CALM      30.20F
RICHMOND       PTSUNNY   78  66  66 CALM      30.18F
RALEIGH        MOSUNNY   83  53  35 SE7       30.17S

$$

ANZ530>537-300000-
MARINE OBSERVATIONS

STATION/POSITION TIME  TEMP    WIND        PRES
                       AIR SEA DIR/SP/G
                 (UTC) (F)     (DEG/KT/KT) (MB)
THOMAS PT LIGHT  2300   76 72  180/  8/  9 1023.0R
BALT KEY BRIDGE  2200   78     110/ 12/ 12 1022.1F
COVE POINT       2200   74     180/ 12/ 12 1023.5S
LEWISETTA        2200   79 78              1022.1F
SOLOMONS ISLAND  2200      78                N/A
PINEY POINT      2200          160/ 15/ 16   N/A

$$



USA.gov is the U.S. government's official web portal to all federal, state and local government web resources and services.